PEGASUS DEB, 40244

Orbit data source: Space-Track

PEGASUS DEB, 40244 is space debris in LEO originally from a launch on Thu, 19 May 1994 UTC launched from the Air Force Western Test Range (AFWTR). Debris objects in space refer to the collection of defunct objects orbiting the Earth. Examples of debris include non-operational satellites, rocket bodies, and fragments generated from explosions, collisions, or faulty payload assembly.

Not visible in the next 10 days
Identifier
40244, 1994-029AGL
Orbit
LEO
Country
Flag of USUS
Related business
Manufacturer
Unknown
Mission
Spacecraft
Bus & Motor
Unknown
Mass
Unknown
Launch date (UTC)
1994-05-19 (32 years ago)
Launch vehicle
Unknown
Launch site
Air Force Western Test Range (AFWTR)
Object type
Payload
Rocket body
Debris
Shape & HBR
Unknown shape, 0.1 m
Radar Cross Section
Small (<0.1 m²)

Expand to show TLE details & history
Last TLE update: 3 months ago

TLE from 3 months ago
0 PEGASUS DEB
1 40244U 94029AGL 26093.24613671  .00198888  00000-0  54965-2 0  9991
2 40244  81.8791  83.7932 0046230 341.5969  18.3597 15.35189376889280
Epoch: 2026-04-03T05:54Z
TLE epoch observation values (Epoch: 2026-04-03T05:54:26.211Z)
Latitude
-0.00002°
Longitude
163.60096°
Altitude
433.45 km
Speed
7.668 km/s
True Right ascension
05h 35m 10s
True Declination
0° 00' 00"
Sunlit
Object was in daylight at epoch
Visualization orbit readout
Latitude
Unknown
Longitude
Unknown
Altitude
Unknown
Speed
Unknown
Apparent Right ascension
Unknown
Apparent Declination
Unknown
Sunlit
N/A
Visualization observer readout
Local Sidereal Time
21:38:16
Azimuth
Unknown
Elevation
Unknown
Doppler factor
Unknown
Orbital elements
Apogee altitude
488.936 km
Perigee altitude
425.735 km
Semi-major axis
6,835.473 km
Eccentricity
0.00462
Inclination
81.8791°
RAAN
83.7932°
Arg. of periapsis
341.5969°
True anomaly
18.52748°
Mean anomaly
18.3597°
Eccentric anomaly
18.4435°
Mean motion
3.84052 °/min
Orbital period
93.74 mins
BSTAR
0.0054965
Loading maneuver chart data...
Computing Atmospheric mass density...

Documentation

Showing up to 5 results
|